Volver al catálogo

CZ-6A DEB

ActivoSSO
NORAD 56284·DEBRIS·🇨🇳 China

Lanzado Nov 11, 2022 desde Taiyuan Satellite Launch Center

Loading…

Próximos Pases (próximas 24 horas)

TLE

ActualizadoSource: Space-Track

Época: Sep 14, 2026, 14:00 UTC

1 56284U 22151ADC 26257.58334863  .00003710  00000-0  75602-3 0  9992
2 56284  98.5156 296.4541 0131748  45.6385 315.5516 14.56257996182907

Sigue CZ-6A DEB en tiempo real con AllMySat

Download on the App Store